Date String (YYYY-MM-DD hh:mm:ss) UTC,Instrument flags,absolute air pressure of the measurement (hPa),sample flow rate (lpm),inlet stack bypass flow (lpm),air temperature of the measurement (°C),ambient temperature measured by the external sensor (°C),aerosol sample conditioner tube jacket temperature (°C),OPC LED temperature (°C),internal box temperature (°C),relative humidity of the measurement (%),span deviation,mass concentration of particles derived from Lorenz-Mie calculation of OPC scattering (μg/m³),mass concentration of particles derived from Lorenz-Mie calculation of OPC scattering (μg/m³),mass concentration of particles derived from Lorenz-Mie calculation of OPC scattering (μg/m³)
DateTimeUTC,F1_M11,P_M11,Q1_M11,Q2_M11,T1_M11,T2_M11,T3_M11,T4_M11,T5_M11,U1_M11,ZSPAN_M11,X2_M11,X0_M11,X1_M11
2024-06-17 12:00:00,SystemResetWarning,0821.7,5.00,000.00,031.3,030.6,000.0,039.7,032.9,030.0,0001.9,0007.28,0018.47,0005.77
2024-06-17 12:01:00,SystemResetWarning,0821.7,5.00,000.00,031.3,030.6,000.0,039.7,032.9,029.8,0001.6,0007.25,0018.53,0005.71
2024-06-17 12:02:00,SystemResetWarning,0821.8,5.00,000.00,031.3,030.6,000.0,039.7,033.0,029.9,0001.7,0007.11,0018.85,0005.65
2024-06-17 12:03:00,SystemResetWarning,0821.8,5.00,000.00,031.3,030.6,000.0,039.7,033.0,029.9,0000.1,0006.97,0018.64,0005.58
2024-06-17 12:04:00,SystemResetWarning,0821.8,5.00,000.00,031.3,030.6,000.0,039.7,033.0,030.0,0000.0,0006.86,0020.13,0005.50
2024-06-17 12:05:00,SystemResetWarning,0821.7,5.01,000.00,031.3,030.6,000.0,039.7,033.0,030.1,0000.0,0006.77,0019.81,0005.43
2024-06-17 12:06:00,SystemResetWarning,0821.7,5.01,000.00,031.3,030.6,000.0,039.7,033.0,030.1,0000.0,0006.66,0018.68,0005.38
2024-06-17 12:07:00,SystemResetWarning,0821.7,5.00,000.00,031.3,030.6,000.0,039.7,033.0,030.1,0000.0,0006.59,0017.04,0005.33
2024-06-17 12:08:00,SystemResetWarning,0821.7,4.99,000.00,031.3,030.6,000.0,039.7,032.9,030.0,0000.0,0006.54,0016.88,0005.28
2024-06-17 12:09:00,SystemResetWarning,0821.8,5.00,000.00,031.3,030.6,000.0,039.7,032.9,030.0,0000.0,0006.50,0016.56,0005.24
2024-06-17 12:10:00,SystemResetWarning,0821.8,4.99,000.00,031.3,030.6,000.0,039.7,033.0,029.9,0000.0,0006.43,0016.49,0005.22
2024-06-17 12:11:00,SystemResetWarning,0821.9,5.00,000.00,031.3,030.6,000.0,039.8,033.0,029.8,0000.0,0006.37,0016.35,0005.19
2024-06-17 12:12:00,SystemResetWarning,0821.8,5.01,000.00,031.3,030.6,000.0,039.8,033.0,029.8,0000.0,0006.36,0016.15,0005.18
2024-06-17 12:13:00,SystemResetWarning,0821.9,5.01,000.00,031.3,030.6,000.0,039.8,033.0,029.8,0000.0,0006.40,0016.01,0005.16
2024-06-17 12:14:00,SystemResetWarning,0821.9,5.00,000.00,031.3,030.6,000.0,039.8,033.0,029.8,0000.0,0006.41,0015.99,0005.14
2024-06-17 12:15:00,SystemResetWarning,0821.8,5.00,000.00,031.3,030.6,000.0,039.8,033.0,029.8,0000.0,0006.43,0014.62,0005.13
2024-06-17 12:16:00,SystemResetWarning,0821.8,5.00,000.00,031.3,030.6,000.0,039.8,033.0,029.7,0000.0,0006.45,0014.46,0005.14
2024-06-17 12:17:00,SystemResetWarning,0821.8,4.99,000.00,031.3,030.6,000.0,039.8,033.0,029.7,0000.0,0006.41,0014.44,0005.12
2024-06-17 12:18:00,SystemResetWarning,0821.9,5.00,000.00,031.3,030.6,000.0,039.8,033.0,029.7,0000.0,0006.39,0014.71,0005.12
2024-06-17 12:19:00,SystemResetWarning,0822.0,5.00,000.00,031.4,030.6,000.0,039.8,033.0,029.6,0000.0,0006.43,0015.22,0005.12
2024-06-17 12:20:00,SystemResetWarning,0822.0,5.00,000.00,031.4,030.7,000.0,039.8,033.0,029.7,0000.0,0006.40,0015.16,0005.09
2024-06-17 12:21:00,SystemResetWarning,0822.0,5.00,000.00,031.4,030.7,000.0,039.8,033.0,029.6,0000.0,0006.43,0014.59,0005.07
2024-06-17 12:22:00,SystemResetWarning,0822.0,5.01,000.00,031.4,030.7,000.0,039.8,033.0,029.6,0000.0,0006.44,0014.99,0005.07
2024-06-17 12:23:00,SystemResetWarning,0821.9,5.01,000.00,031.4,030.7,000.0,039.8,033.1,029.6,0000.0,0006.41,0015.38,0005.05
2024-06-17 12:24:00,SystemResetWarning,0821.9,5.00,000.00,031.4,030.7,000.0,039.8,033.0,029.7,0000.0,0006.36,0015.36,0005.04
2024-06-17 12:25:00,SystemResetWarning,0821.9,5.00,000.00,031.4,030.7,000.0,039.8,033.0,029.7,0000.0,0006.38,0016.55,0005.05
2024-06-17 12:26:00,SystemResetWarning,0821.9,5.00,000.00,031.4,030.7,000.0,039.8,033.1,029.7,0000.5,0006.36,0016.54,0005.05
2024-06-17 12:27:00,SystemResetWarning,0822.0,5.00,000.00,031.4,030.7,000.0,039.9,033.1,029.7,0001.4,0006.32,0016.18,0005.03
2024-06-17 12:28:00,SystemResetWarning,0821.9,5.00,000.00,031.4,030.7,000.0,039.9,033.1,029.7,0001.6,0006.33,0016.75,0005.03
2024-06-17 12:29:00,SystemResetWarning,0822.0,5.00,000.00,031.4,030.7,000.0,039.9,033.1,029.7,0002.1,0006.34,0016.70,0005.02
2024-06-17 12:30:00,SystemResetWarning,0822.0,5.00,000.00,031.4,030.7,000.0,039.9,033.1,029.7,0000.6,0006.28,0016.01,0005.01
2024-06-17 12:31:00,SystemResetWarning,0822.1,5.00,000.00,031.4,030.7,000.0,039.9,033.1,029.7,0000.0,0006.26,0016.50,0005.00
2024-06-17 12:32:00,SystemResetWarning,0822.1,5.00,000.00,031.4,030.7,000.0,039.9,033.1,029.7,0000.0,0006.27,0017.25,0005.01
2024-06-17 12:33:00,SystemResetWarning,0822.1,4.99,000.00,031.4,030.7,000.0,039.9,033.1,029.7,0000.0,0006.25,0017.00,0005.01
2024-06-17 12:34:00,SystemResetWarning,0822.2,4.99,000.00,031.4,030.7,000.0,039.9,033.1,029.7,0000.0,0006.25,0016.88,0005.00
2024-06-17 12:35:00,SystemResetWarning,0822.2,5.01,000.00,031.4,030.7,000.0,039.9,033.1,029.8,0000.0,0006.24,0016.63,0005.01
2024-06-17 12:36:00,SystemResetWarning,0822.2,5.01,000.00,031.5,030.7,000.0,039.9,033.1,029.9,0000.0,0006.19,0015.21,0005.00
2024-06-17 12:37:00,SystemResetWarning,0822.2,5.00,000.00,031.5,030.7,000.0,039.9,033.1,030.1,0000.0,0006.15,0015.43,0004.98
2024-06-17 12:38:00,SystemResetWarning,0822.2,5.00,000.00,031.5,030.7,000.0,039.9,033.1,029.9,0000.0,0006.14,0015.90,0004.97
2024-06-17 12:39:00,SystemResetWarning,0822.3,5.00,000.00,031.5,030.7,000.0,039.9,033.1,029.9,0000.0,0006.12,0016.34,0004.97
2024-06-17 12:40:00,SystemResetWarning,0822.2,5.00,000.00,031.5,030.7,000.0,039.9,033.2,029.8,0000.0,0006.08,0016.35,0004.96
2024-06-17 12:41:00,SystemResetWarning,0822.2,4.99,000.00,031.5,030.7,000.0,039.9,033.1,029.8,0000.0,0006.08,0016.43,0004.95
2024-06-17 12:42:00,SystemResetWarning,0822.2,5.00,000.00,031.5,030.7,000.0,039.9,033.1,029.8,0000.0,0006.09,0016.26,0004.94
2024-06-17 12:43:00,SystemResetWarning,0822.2,4.99,000.00,031.5,030.7,000.0,039.9,033.1,029.8,0000.0,0006.06,0015.88,0004.94
2024-06-17 12:44:00,SystemResetWarning,0822.3,4.99,000.00,031.5,030.7,000.0,039.9,033.1,029.8,0000.0,0006.05,0016.43,0004.93
2024-06-17 12:45:00,SystemResetWarning,0822.2,5.01,000.00,031.5,030.8,000.0,039.9,033.2,029.7,0000.0,0006.10,0016.64,0004.93
2024-06-17 12:46:00,SystemResetWarning,0822.3,5.01,000.00,031.5,030.8,000.0,040.0,033.2,029.8,0000.0,0006.08,0016.21,0004.91
2024-06-17 12:47:00,SystemResetWarning,0822.2,5.00,000.00,031.5,030.8,000.0,040.0,033.2,029.8,0000.0,0006.08,0016.24,0004.90
2024-06-17 12:48:00,SystemResetWarning,0822.2,5.00,000.00,031.5,030.8,000.0,040.0,033.2,029.8,0000.0,0006.08,0015.61,0004.91
2024-06-17 12:49:00,SystemResetWarning,0822.2,4.99,000.00,031.5,030.8,000.0,040.0,033.2,029.8,0000.0,0006.07,0015.19,0004.90
2024-06-17 12:50:00,SystemResetWarning,0822.2,5.01,000.00,031.5,030.8,000.0,040.0,033.2,029.8,0000.0,0006.03,0014.47,0004.89
2024-06-17 12:51:00,SystemResetWarning,0822.3,5.01,000.00,031.5,030.8,000.0,040.0,033.2,029.9,0000.0,0006.03,0014.17,0004.88
2024-06-17 12:52:00,SystemResetWarning,0822.3,5.00,000.00,031.5,030.8,000.0,040.0,033.2,029.9,0000.0,0006.01,0013.78,0004.88
2024-06-17 12:53:00,SystemResetWarning,0822.4,4.99,000.00,031.5,030.8,000.0,040.0,033.2,029.9,0000.0,0006.02,0014.12,0004.88
2024-06-17 12:54:00,SystemResetWarning,0822.4,4.99,000.00,031.5,030.8,000.0,040.0,033.2,029.8,0000.0,0005.99,0015.16,0004.86
2024-06-17 12:55:00,SystemResetWarning,0822.4,5.00,000.00,031.5,030.8,000.0,040.0,033.2,029.8,0000.0,0005.99,0014.55,0004.86
2024-06-17 12:56:00,SystemResetWarning,0822.4,5.01,000.00,031.5,030.8,000.0,040.0,033.2,029.7,0000.0,0005.89,0013.71,0004.85
2024-06-17 12:57:00,SystemResetWarning,0822.4,5.01,000.00,031.5,030.8,000.0,040.0,033.2,029.7,0000.0,0005.86,0013.95,0004.84
2024-06-17 12:58:00,SystemResetWarning,0822.4,5.00,000.00,031.5,030.8,000.0,040.0,033.2,029.8,0000.0,0005.90,0014.32,0004.84
2024-06-17 12:59:00,SystemResetWarning,0822.4,5.00,000.00,031.5,030.8,000.0,040.0,033.2,029.8,0000.0,0005.90,0014.27,0004.82
